Northeast Philadelphia, PA

9:50 PM EST on November 12, 2019 (GMT -0500)
Northeast Philadelphia

Weather History for KPNE - September, 2019

Change the Weather History Date:

Sunday, September 29, 2019

  Actual Average Record
Temperature  
Mean Temperature 76 °F -  
Max Temperature 82 °F 69 °F 86 °F (2015)
Min Temperature 68 °F 50 °F 42 °F (2000)
Cooling Degree Days 10    
Growing Degree Days 26 (Base 50)    
Moisture  
Dew Point 63 °F    
Average Humidity 67    
Maximum Humidity 87    
Minimum Humidity 52    
Precipitation  
Precipitation 0.00 in - - ()
Sea Level Pressure  
Sea Level Pressure 30.21 in    
Wind  
Wind Speed 5 mph ()    
Max Wind Speed 14 mph    
Max Gust Speed -    
Visibility 9.8 miles    
Events      
Averages and records for this station are not official NWS values.
T = Trace of Precipitation, MM = Missing Value Source: Averaged Metar Reports

Daily Weather History Graph

Daily Weather History Graph

Search for Another Location

Airport or City:

Astronomy

Sep. 29, 2019 Rise Set
Actual Time 6:54 AM EDT 6:45 PM EDT
Civil Twilight 6:27 AM EDT 7:12 PM EDT
Nautical Twilight 5:55 AM EDT 7:44 PM EDT
Astronomical Twilight 5:23 AM EDT 8:16 PM EDT
Moon 7:41 AM EDT (9/29) 7:44 PM EDT (9/29)
Length of Visible Light 12h 45m
Length of Day
11h 51m
New Moon, 1% of the Moon is Illuminated
Sep 29
New Moon
Oct 5
First Quarter
Oct 13
Full
Oct 21
Last Quarter
Oct 27
New

Hourly Weather History & Observations

Time (EDT) Temp. Heat Index Dew Point Humidity Pressure Visibility Wind Dir Wind Speed Gust Speed Precip Events Conditions
12:54 AM 73.9 °F - 69.1 °F 85% 30.11 in 10.0 mi Calm Calm - N/A   Clear
1:54 AM 71.1 °F - 66.9 °F 87% 30.11 in 6.0 mi NNW 4.6 mph - N/A   Clear
2:54 AM 72.0 °F - 68.0 °F 87% 30.12 in 10.0 mi NNW 3.5 mph - N/A   Clear
3:54 AM 71.1 °F - 66.9 °F 87% 30.12 in 10.0 mi North 4.6 mph - N/A   Clear
4:54 AM 73.0 °F - 66.9 °F 81% 30.14 in 10.0 mi North 8.1 mph - N/A   Clear
5:54 AM 72.0 °F - 66.0 °F 81% 30.17 in 10.0 mi North 6.9 mph - N/A   Clear
6:54 AM 71.1 °F - 64.0 °F 78% 30.18 in 10.0 mi NNE 6.9 mph - N/A   Clear
7:54 AM 73.0 °F - 64.0 °F 73% 30.20 in 10.0 mi NNE 10.4 mph - N/A   Clear
8:54 AM 75.0 °F - 63.0 °F 66% 30.23 in 10.0 mi NNE 6.9 mph - N/A   Clear
9:54 AM 77.0 °F - 62.1 °F 60% 30.25 in 10.0 mi North 10.4 mph - N/A   Clear
10:54 AM 78.1 °F - 62.1 °F 58% 30.27 in 10.0 mi North 13.8 mph - N/A   Scattered Clouds
11:54 AM 81.0 °F 82.2 °F 63.0 °F 54% 30.25 in 10.0 mi ENE 8.1 mph - N/A   Mostly Cloudy
12:54 PM 80.1 °F 81.2 °F 62.1 °F 54% 30.25 in 10.0 mi North 8.1 mph - N/A   Mostly Cloudy
1:54 PM 80.1 °F 81.5 °F 63.0 °F 56% 30.23 in 10.0 mi ESE 9.2 mph - N/A   Overcast
2:54 PM 82.0 °F 83.1 °F 63.0 °F 52% 30.23 in 10.0 mi ENE 9.2 mph - N/A   Overcast
3:54 PM 81.0 °F 81.9 °F 62.1 °F 52% 30.23 in 10.0 mi ESE 8.1 mph - N/A   Scattered Clouds
4:54 PM 80.1 °F 81.2 °F 62.1 °F 54% 30.22 in 10.0 mi SE 6.9 mph - N/A   Scattered Clouds
5:54 PM 79.0 °F - 61.0 °F 54% 30.23 in 10.0 mi SSE 4.6 mph - N/A   Clear
6:54 PM 75.9 °F - 60.1 °F 58% 30.24 in 10.0 mi Calm Calm - N/A   Clear
7:54 PM 73.9 °F - 60.1 °F 62% 30.25 in 10.0 mi Calm Calm - N/A   Clear
8:54 PM 72.0 °F - 60.1 °F 66% 30.27 in 10.0 mi ESE 6.9 mph - N/A   Clear
9:54 PM 70.0 °F - 59.0 °F 68% 30.28 in 10.0 mi ENE 4.6 mph - N/A   Clear
10:54 PM 69.1 °F - 59.0 °F 70% 30.29 in 10.0 mi NE 3.5 mph - N/A   Clear
11:54 PM 68.0 °F - 57.9 °F 70% 30.28 in 10.0 mi NE 5.8 mph - N/A   Clear